Regional Weather Roundup
Issued by NWS

Home | Current Version | Previous Version | Graphics & Text | Print | Product List | Glossary On
Versions: 1 2 3 4 5 6 7 8 9 10 11 12 13 14 15 16 17 18 19 20 21 22 23 24 25 26 27 28 29 30 31 32 33 34 35 36 37 38 39 40 41 42 43 44 45 46 47 48 49 50
000
ASUS43 KTOP 282108
RWRKS

WEATHER ROUNDUP FOR KANSAS
NATIONAL WEATHER SERVICE GOODLAND KS
400 PM CDT TUE MAR 28 2017

NOTE:  "FAIR" INDICATES FEW OR NO CLOUDS BELOW 12,000 FEET WITH NO
SIGNIFICANT WEATHER AND/OR OBSTRUCTIONS TO VISIBILITY.

KSZ001>006-013>018-027>032-041>047-282200-
NORTHWEST KANSAS

CITY           SKY/WX    TMP DP  RH WIND       PRES   REMARKS
GOODLAND       RAIN      44  43  96 SE17      29.93R FOG
HAYS             N/A     50  46  86 E7        29.98R
HILL CITY      LGT RAIN  49  47  93 E7        29.96F FOG
RUSSELL        CLOUDY    51  45  79 SE8       29.97R
$$

KSZ061>065-074>080-084>089-282200-
SOUTHWEST KANSAS

CITY           SKY/WX    TMP DP  RH WIND       PRES   REMARKS
DODGE CITY     TSTM      46  46 100 N14       29.85F FOG
ELKHART          N/A     44  35  70 E22         N/A
GARDEN CITY    HVY RAIN  45  43  93 E15       29.88R FOG
GREAT BEND     RAIN      50  46  86 NE13      29.94R
LIBERAL        CLOUDY    45  39  81 E17G25    29.83F
PRATT          LGT RAIN  47  44  90 E10       29.93R
$$

KSZ066>073-081>083-090>101-282200-
SOUTHEAST KANSAS

CITY           SKY/WX    TMP DP  RH WIND       PRES   REMARKS
CHANUTE        CLOUDY    59  49  69 E12       29.93F
COFFEYVILLE    PTSUNNY   62  51  67 E16       29.91F
MEDICINE LODGE   N/A     50  47  89 NE14      29.86F
NEWTON         CLOUDY    52  47  83 E16       29.92F
PARSONS        PTSUNNY   61  50  67 VRB6G16   29.92F
WICHITA INTL   CLOUDY    54  47  77 E10       29.92R
WICHITA JABRA  CLOUDY    53  47  79 E14       29.91F
WICHITA MCCONL CLOUDY    54  46  74 E10       29.92R
WINFIELD       CLOUDY    57  48  72 E14G21    29.90S
$$

KSZ007>012-019>026-033>040-048>060-102>105-282200-
NORTHEAST KANSAS

CITY           SKY/WX    TMP DP  RH WIND       PRES   REMARKS
CONCORDIA      PTSUNNY   54  43  66 E12       29.97F
EMPORIA        CLOUDY    54  49  83 E13       29.94F
LAWRENCE       CLOUDY    56  50  80 E13       30.00F
MANHATTAN      CLOUDY    54  45  71 E15       29.96F
MARYSVILLE     CLOUDY    52  43  71 E12       30.00F
OLATHE IND     CLOUDY    54  49  83 E12       30.01F
OLATHE EXE     CLOUDY    52  50  93 E10       30.00F
SALINA         PTSUNNY   57  45  64 E12       29.94F
TOPEKA BILLARD CLOUDY    55  50  83 NE12      29.99F
TOPEKA FORBES  CLOUDY    56  49  77 NE10      29.98F
$$



USA.gov is the U.S. government's official web portal to all federal, state and local government web resources and services.